Content
SEND FEEDBACK

Daily
Averages
Monthly
Summary
United States of America

ROSEMOUNT, MINNESOTA


Home > North America > United States > Minnesota
Elevation: 944 feet     Latitude: 44 43N     Longitude: 093 05W

WEATHER
 
SELECT A DAY
Number of Records: 286,976;   Date Range: 1/4/95 - 7/20/14
 
SHARE

PRINT THIS DATA

[ ← Previous Day ]
WEATHER ALMANAC - JANUARY 31, 2013
[ Next Day → ]
[ °C ]   °F
Weather ElementAverageHighLow
Temperature4.3 °F10.6 °F (12:32 am)-4.9 °F (11:52 pm)
Dewpoint-4.9 °F2.3 °F (12:32 am)-14.8 °F (11:52 pm)
Humidity65.8 %74 % (3:12 am)58 % (4:52 pm)
Barometer29.99 in30.26 in (11:32 pm)29.75 in (12:32 am)
Wind Speed13.1 mph20.7 mph (8:52 am)
Wind Gust27.6 mph (8:52 am)
Weather ElementAverage
Visibility8.1 mi
Wind DirectionWNW (306.8 °)

Weather ElementTotal
Precipitation---
Heating Degree Days62.2 (Base 65)
Averaged from 68 records on January 31, 2013
WEATHER CONDITIONS BREAKOUT
WIND DIRECTION BREAKOUT
WEATHER BY HOUR - JANUARY 31, 2013
[ °C ]   °F
Local TimeTemperatureDewpointHumidityBarometerVisibilityWind DirectionWind SpeedGust SpeedPrecipitationEventsConditions
12:32 AM10.6 °F2.3 °F69 %29.75 in10.0 miWNW (300°)10.4 mph18.4 mphScattered Clouds
12:52 AM10.2 °F1.9 °F69 %29.76 in10.0 miNW (310°)12.7 mph17.3 mphOvercast
1:12 AM9.5 °F1.4 °F70 %29.76 in10.0 miWNW (290°)15.0 mph18.4 mphMostly Cloudy
1:32 AM9.3 °F1.0 °F69 %29.77 in10.0 miWNW (300°)11.5 mph19.6 mphScattered Clouds
1:52 AM9.1 °F0.5 °F68 %29.77 in10.0 miNW (310°)17.3 mph23.0 mphOvercast
2:12 AM9.1 °F1.0 °F70 %29.78 in10.0 miNW (310°)12.7 mph16.1 mphOvercast
2:32 AM9.0 °F1.0 °F70 %29.78 in10.0 miNW (310°)9.2 mph18.4 mphScattered Clouds
2:52 AM8.6 °F1.4 °F73 %29.78 in10.0 miNW (310°)13.8 mph19.6 mphScattered Clouds
3:12 AM8.2 °F1.4 °F74 %29.78 in7.0 miWNW (290°)10.4 mphScattered Clouds
3:32 AM8.2 °F0.7 °F71 %29.78 in10.0 miWNW (300°)11.5 mph18.4 mphOvercast
3:52 AM8.1 °F-0.4 °F68 %29.79 in10.0 miNW (310°)12.7 mphOvercast
4:12 AM8.1 °F-0.4 °F68 %29.80 in10.0 miNW (310°)8.1 mphOvercast
4:32 AM7.5 °F-0.4 °F70 %29.81 in10.0 miWNW (300°)12.7 mph16.1 mphOvercast
4:52 AM7.3 °F-0.9 °F69 %29.82 in10.0 miWNW (300°)11.5 mph16.1 mphOvercast
5:12 AM7.2 °F-1.3 °F68 %29.82 in10.0 miNW (320°)12.7 mph16.1 mphOvercast
5:32 AM6.8 °F-1.3 °F69 %29.83 in10.0 miNW (310°)12.7 mph18.4 mphOvercast
5:52 AM6.8 °F-1.3 °F69 %29.83 in10.0 miNW (320°)15.0 mph19.6 mphOvercast
6:12 AM6.6 °F-1.5 °F69 %29.85 in10.0 miNW (320°)13.8 mph20.7 mphOvercast
6:32 AM6.6 °F-1.3 °F70 %29.86 in7.0 miNW (310°)13.8 mph19.6 mphOvercast
6:52 AM5.9 °F-1.5 °F72 %29.86 in4.0 miWNW (290°)13.8 mph20.7 mphHaze
7:12 AM5.5 °F-2.6 °F69 %29.87 in5.0 miNW (310°)15.0 mph21.9 mphHaze
7:32 AM5.5 °F-1.5 °F73 %29.88 in4.0 miWNW (300°)10.4 mph20.7 mphHaze
7:52 AM5.4 °F-2.6 °F70 %29.89 in7.0 miNW (310°)15.0 mph19.6 mphOvercast
8:12 AM4.8 °F-3.3 °F69 %29.90 in5.0 miWNW (300°)15.0 mph19.6 mphHaze
8:32 AM4.5 °F-4.0 °F68 %29.91 in10.0 miNW (310°)12.7 mphMostly Cloudy
8:52 AM3.9 °F-4.4 °F69 %29.92 in4.0 miNW (320°)20.7 mph27.6 mphHaze
9:17 AM4.1 °F-4.5 °F67 %29.93 in5.0 miNW (310°)12.7 mph21.9 mphHaze
9:32 AM4.1 °F-4.7 °F67 %29.94 in7.0 miNW (320°)11.5 mph23.0 mphClear
9:52 AM4.1 °F-4.5 °F67 %29.96 in7.0 miNW (320°)10.4 mph20.7 mphScattered Clouds
10:12 AM4.1 °F-4.7 °F67 %29.97 in7.0 miNW (320°)15.0 mphClear
10:32 AM4.1 °F-4.9 °F66 %29.98 in4.0 miNW (310°)13.8 mph20.7 mphHaze
10:52 AM4.1 °F-5.1 °F66 %29.99 in5.0 miWNW (300°)17.3 mph21.9 mphHaze
11:12 AM4.1 °F-4.9 °F66 %29.99 in7.0 miNW (310°)16.1 mph23.0 mphClear
11:32 AM4.1 °F-4.4 °F68 %30.00 in3.0 miNW (310°)13.8 mph24.2 mphHaze
11:52 AM4.1 °F-4.0 °F69 %30.00 in2.5 miNW (320°)16.1 mph24.2 mphHaze
12:12 PM4.3 °F-4.4 °F67 %30.01 in3.0 miNNW (330°)15.0 mphHaze
12:32 PM4.1 °F-5.4 °F65 %30.02 in5.0 miNW (320°)16.1 mph21.9 mphHaze
12:52 PM5.0 °F-3.8 °F67 %30.02 in3.0 miNW (310°)17.3 mph21.9 mphHaze
1:12 PM4.8 °F-4.9 °F64 %30.02 in5.0 miNW (320°)15.0 mph23.0 mphHaze
1:32 PM4.5 °F-5.4 °F64 %30.03 in4.0 miNW (310°)17.3 mph23.0 mphHaze
1:52 PM4.1 °F-6.2 °F63 %30.04 in7.0 miNW (320°)17.3 mph25.3 mphClear
2:12 PM4.5 °F-6.0 °F62 %30.04 in10.0 miNW (320°)15.0 mph19.6 mphClear
2:32 PM4.5 °F-5.8 °F63 %30.05 in5.0 miNW (320°)16.1 mph26.5 mphHaze
2:52 PM4.8 °F-6.3 °F60 %30.06 in10.0 miNW (320°)13.8 mph26.5 mphClear
3:12 PM4.8 °F-5.3 °F63 %30.07 in7.0 miNW (320°)19.6 mph25.3 mphClear
3:32 PM5.0 °F-5.4 °F62 %30.08 in10.0 miNW (310°)18.4 mph21.9 mphClear
3:52 PM4.6 °F-6.0 °F62 %30.08 in7.0 miNW (310°)18.4 mph25.3 mphClear
4:12 PM4.5 °F-5.4 °F64 %30.10 in7.0 miNW (310°)15.0 mph21.9 mphClear
4:32 PM4.6 °F-6.5 °F60 %30.11 in10.0 miNW (310°)13.8 mph20.7 mphClear
4:52 PM4.1 °F-7.6 °F58 %30.12 in10.0 miWNW (290°)16.1 mph24.2 mphClear
5:12 PM3.9 °F-7.2 °F60 %30.13 in10.0 miWNW (300°)9.2 mphClear
5:32 PM3.7 °F-8.0 °F58 %30.13 in10.0 miWNW (300°)17.3 mph20.7 mphClear
6:12 PM3.0 °F-8.0 °F60 %30.15 in10.0 miWNW (300°)10.4 mph24.2 mphClear
6:32 PM2.3 °F-8.5 °F61 %30.16 in10.0 miWNW (300°)9.2 mph19.6 mphClear
6:52 PM2.1 °F-8.5 °F61 %30.17 in10.0 miWNW (300°)12.7 mph19.6 mphClear
7:12 PM1.8 °F-8.9 °F61 %30.17 in10.0 miWNW (300°)11.5 mph18.4 mphClear
7:32 PM0.9 °F-9.6 °F62 %30.18 in10.0 miWNW (300°)10.4 mph17.3 mphClear
7:52 PM0.3 °F-9.8 °F63 %30.19 in10.0 miWNW (300°)9.2 mphClear
8:12 PM0.0 °F-10.3 °F62 %30.20 in10.0 miWNW (300°)9.2 mph16.1 mphClear
8:32 PM-0.6 °F-10.5 °F63 %30.21 in10.0 miWNW (300°)9.2 mphClear
8:52 PM-0.9 °F-10.7 °F63 %30.22 in10.0 miWNW (290°)6.9 mphClear
9:12 PM-1.8 °F-11.4 °F64 %30.22 in10.0 miWNW (290°)10.4 mph16.1 mphClear
9:32 PM-2.2 °F-12.1 °F63 %30.23 in10.0 miWNW (290°)10.4 mphClear
10:12 PM-3.1 °F-12.8 °F63 %30.24 in10.0 miWNW (290°)9.2 mphClear
10:32 PM-3.5 °F-13.0 °F64 %30.24 in10.0 miWNW (300°)10.4 mph17.3 mphClear
11:12 PM-4.2 °F-13.9 °F63 %30.25 in10.0 miWNW (290°)8.1 mph16.1 mphClear
11:32 PM-4.4 °F-14.6 °F61 %30.26 in10.0 miWNW (300°)10.4 mphClear
11:52 PM-4.9 °F-14.8 °F62 %30.26 in10.0 miWNW (300°)6.9 mphClear
Hourly data recorded from KSGS, located miles away from Rosemount, Minnesota







STORIES FROM OUR PARTNERS